Weather History for Elkins, WV

Change the Weather History Date:

Wednesday, January 29, 2014

  Actual Average Record
Temperature  
Mean Temperature 2 °F 30 °F  
Max Temperature 15 °F 40 °F 78 °F (1914)
Min Temperature -12 °F 20 °F -20 °F (1963)
Degree Days  
Heating Degree Days 63 35  
Month to date heating degree days 1211 1041  
Since 1 July heating degree days 3421 3332  
Cooling Degree Days 0 0  
Month to date cooling degree days 0 0  
Year to date cooling degree days 0 0  
Moisture  
Dew Point -10 °F    
Average Humidity 62    
Maximum Humidity 87    
Minimum Humidity 36    
Precipitation  
Precipitation 0.00 in 0.10 in 1.73 in (1911)
Month to date precipitation 2.15 3.02  
Year to date precipitation 2.15 3.02  
Snow  
Snow 0.00 in - - ()
Month to date snowfall 23.3  
Since 1 September snowfall 39.2  
Snow Depth 4.00 in    
Sea Level Pressure  
Sea Level Pressure 29.72 in    
Wind  
Wind Speed 2 mph (West)    
Max Wind Speed 16 mph    
Max Gust Speed 19 mph    
Visibility 10 miles    
Events      
T = Trace of Precipitation, MM = Missing Value Source: NWS Daily Summary

Daily Weather History Graph

Daily Weather History Graph

Search for Another Location

Airport:

Trip Planner

Search our weather history database for the weather conditions in past years. The results will help you decide how hot, cold, wet, or windy it might be!

Date:

Astronomy

Jan. 29, 2014 Rise Set
Actual Time 7:28 AM EST 5:37 PM EST
Civil Twilight 6:59 AM EST 6:05 PM EST
Nautical Twilight 6:27 AM EST 6:37 PM EST
Astronomical Twilight 5:56 AM EST 7:09 PM EST
Moon 6:03 AM EST (1/29) 4:35 PM EST (1/29)
Length of Visible Light 11h 05m
Length of Day
10h 09m
Waning Crescent, 2% of the Moon is Illuminated
Jan 29
Waning Crescent
Jan 30
New
Feb 6
First Quarter
Feb 14
Full
Feb 22
Last Quarter

Hourly Weather History & Observations

Time (EST) Temp. Windchill Dew Point Humidity Pressure Visibility Wind Dir Wind Speed Gust Speed Precip Events Conditions
12:51 AM -0.9 °F - -8.0 °F 72% 30.32 in 10.0 mi Calm Calm - N/A   Partly Cloudy
1:51 AM -4.0 °F - -8.0 °F 83% 30.31 in 10.0 mi Calm Calm - N/A   Clear
2:51 AM -2.9 °F - -9.0 °F 75% 30.32 in 10.0 mi Calm Calm - N/A   Clear
3:13 AM -6.0 °F - -11.0 °F 79% 30.15 in 10.0 mi Calm Calm - N/A   Mostly Cloudy
3:51 AM -6.0 °F - -9.9 °F 83% 30.32 in 8.0 mi Calm Calm - N/A   Overcast
4:49 AM -5.8 °F - -11.2 °F 77% 30.17 in 10.0 mi Calm Calm - N/A   Scattered Clouds
4:51 AM -7.1 °F - -11.0 °F 83% 30.34 in 10.0 mi Calm Calm - N/A   Partly Cloudy
5:51 AM -8.0 °F - -13.0 °F 79% 28.21 in 10.0 mi Calm Calm - N/A   Scattered Clouds
6:51 AM -9.0 °F - -15.0 °F 75% 28.22 in 10.0 mi Calm Calm - N/A   Clear
7:51 AM -11.0 °F - -16.1 °F 78% 28.24 in 10.0 mi Calm Calm - N/A   Clear
8:51 AM -0.9 °F - -9.0 °F 69% 30.37 in 10.0 mi Calm Calm - N/A   Clear
9:51 AM 3.0 °F -8.0 °F -11.9 °F 50% 30.38 in 10.0 mi SW 5.8 mph - N/A   Clear
10:51 AM 6.1 °F -2.8 °F -11.0 °F 45% 30.38 in 10.0 mi West 4.6 mph - N/A   Clear
11:51 AM 9.0 °F 2.4 °F -9.9 °F 42% 30.38 in 10.0 mi Variable 3.5 mph - N/A   Clear
12:51 PM 10.9 °F -2.6 °F -9.0 °F 40% 30.35 in 10.0 mi West 10.4 mph - N/A   Clear
1:51 PM 12.0 °F -2.0 °F -9.0 °F 39% 30.35 in 10.0 mi WSW 11.5 mph 19.6 mph N/A   Clear
2:51 PM 14.0 °F 6.5 °F -9.0 °F 35% 30.33 in 10.0 mi WNW 4.6 mph - N/A   Clear
3:51 PM 15.1 °F 7.7 °F -8.0 °F 36% 30.33 in 10.0 mi West 4.6 mph - N/A   Clear
4:51 PM 14.0 °F 5.1 °F -9.0 °F 35% 30.36 in 10.0 mi West 5.8 mph - N/A   Clear
5:51 PM 10.9 °F 4.7 °F -9.0 °F 40% 30.38 in 10.0 mi WNW 3.5 mph - N/A   Clear
6:51 PM 3.9 °F - -8.0 °F 58% 28.29 in 10.0 mi Calm Calm - N/A   Clear
7:51 PM -0.0 °F - -8.0 °F 69% 28.33 in 10.0 mi Calm Calm - N/A   Clear
8:51 PM -2.0 °F - -9.0 °F 72% 28.30 in 10.0 mi Calm Calm - N/A   Clear
9:51 PM -2.9 °F - -9.0 °F 75% 28.31 in 10.0 mi Calm Calm - N/A   Clear
10:51 PM -2.9 °F - -9.9 °F 72% 30.45 in 10.0 mi Calm Calm - N/A   Clear
11:51 PM -6.0 °F - -11.0 °F 79% 30.44 in 10.0 mi Calm Calm - N/A   Clear